TIME,DELAY(SENSOR),PRES,OXYGEN,RAWTEMP,T(OPTODE),TCPHASE,FLUOR,BETA(BETA700),BETA(BETA412),BETA(BETA440),CDOM,C(CSC),ED(ED412.20),ED(ED444.00),ED(ED489.60),ED(ED554.30),LU(LU412.10),LU(LU443.90),LU(LU489.70),LU(LU554.70),COMP,TILTX,TILTY,CHECK
1337830024,5810,894.1199951171875000,31.6802902221679700,563.4124145507812000,4.3800911903381350,56.8538208007812500,56,99,102,79,85,15512,0,0,0,0,2147127524,2147772324,2147573238,2147575012,3479,2,13,1047
1337833620,5808,973.9699707031250000,37.1987686157226560,572.1218872070312000,4.1096038818359375,56.0605392456054700,55,98,101,79,85,15513,0,0,0,0,2147125156,2147770989,2147576896,2147574738,3043,2,13,16735
1337837220,5811,982.0000000000000000,40.2053604125976560,574.7836303710938000,4.0268120765686035,55.6353187561035160,55,98,101,78,85,15513,0,0,0,0,2147126308,2147775387,2147574948,2147572205,19,2,13,36
1337840820,5808,990.9500122070312000,41.5313110351562500,576.3967895507812000,3.9766030311584473,55.4608497619628900,56,99,101,77,83,15511,0,0,0,0,2147128768,2147779392,2147576219,2147570605,438,2,13,33210
1337844420,5811,989.9699707031250000,41.6261100769043000,576.7749023437500000,3.9648320674896240,55.4473304748535160,55,99,101,79,82,15512,0,0,0,0,2147128128,2147779648,2147575634,2147572105,54,2,13,51597
1337848020,5810,991.1500244140625000,41.6610984802246100,576.9614868164062000,3.9590210914611816,55.4473991394043000,54,98,102,79,84,15510,0,0,0,0,2147124233,2147776384,2147574043,2147571922,202,2,13,39790
1337851620,5809,998.0700073242188000,41.3893585205078100,577.1184082031250000,3.9541358947753906,55.4852409362793000,54,98,101,77,83,15511,0,0,0,0,2147125485,2147775926,2147576420,2147571190,172,2,13,16651
1337855220,5809,1003.5300292968750000,41.2450904846191400,576.8526000976562000,3.9624121189117430,55.5032005310058600,55,98,101,76,84,15505,0,0,0,0,2147126994,2147776402,2147578614,2147571858,215,2,13,10892
1337858820,5807,1009.6900024414062000,40.4890899658203100,575.5454711914062000,4.0031008720397950,55.6014289855957000,54,100,101,80,85,15511,0,0,0,0,2147126144,2147777755,2147572141,2147571008,412,2,13,53165
1337862420,5811,1009.4199829101562000,40.1067810058593750,575.4180908203125000,4.0070648193359375,55.6615409851074200,56,98,102,77,84,15504,0,0,0,0,2147125650,2147773577,2147574427,2147570148,18,2,13,62853
1337866020,5812,1004.9899902343750000,40.5698013305664060,576.2719116210938000,3.9804921150207520,55.5939598083496100,55,100,101,79,84,15508,0,0,0,0,2147125083,2147775762,2147572800,2147573266,69,2,13,43206
1337869620,5810,1005.4000244140625000,40.5853500366210940,576.9498291015625000,3.9593870639801025,55.6034317016601560,55,101,101,79,84,15508,0,0,0,0,2147126363,2147776283,2147575670,2147570532,3590,2,13,5850
1337873220,5809,1007.7100219726562000,40.6857185363769500,576.8281250000000000,3.9631750583648680,55.5848503112793000,55,98,101,78,84,15504,0,0,0,0,2147127817,2147774043,2147575232,2147572534,459,2,13,29305
1337876820,5805,1006.7800292968750000,40.1203994750976560,576.8502807617188000,3.9624819755554200,55.6742210388183600,55,101,101,79,84,15504,0,0,0,0,2147126811,2147770797,2147575954,2147571126,316,2,13,60665
1337880420,5808,999.1500244140625000,40.9826698303222660,577.8129272460938000,3.9325098991394043,55.5515213012695300,55,99,101,79,84,15502,0,0,0,0,2147123986,2147769536,2147579629,2147570688,520,2,13,14963
1337884020,5810,1002.2399902343750000,41.5016899108886700,577.7534179687500000,3.9343640804290770,55.4752006530761700,54,98,101,79,84,15505,0,0,0,0,2147124498,2147778011,2147577216,2147572333,594,2,13,39764
1337887620,5809,1003.8300170898438000,41.2919082641601560,578.2830810546875000,3.9178659915924072,55.5112915039062500,55,99,101,79,84,15498,0,0,0,0,2147125577,2147776896,2147574610,2147573476,173,2,13,4680
1337891220,5808,1001.2600097656250000,41.7069282531738300,578.1284179687500000,3.9226861000061035,55.4517517089843750,55,101,101,78,84,15494,0,0,0,0,2147131282,2147776164,2147576603,2147572032,123,2,13,16003
1337894820,5812,1008.7899780273438000,42.0653610229492200,578.0020751953125000,3.9266190528869630,55.3987693786621100,56,97,102,79,85,15504,0,0,0,0,2147127451,2147777572,2147575725,2147570907,49,2,13,59992
1337898420,5809,1010.4600219726562000,40.8761482238769500,577.9426269531250000,3.9284729957580566,55.5725898742675800,55,102,103,78,84,15497,0,0,0,0,2147126765,2147773385,2147574793,2147571501,256,2,13,49683
1337902020,5812,1008.6799926757812000,40.7526206970214840,577.4013061523438000,3.9453279972076416,55.5802192687988300,55,102,102,77,84,15502,0,0,0,0,2147125504,2147779017,2147572891,2147570880,3387,2,13,58770
1337905620,5809,1014.5200195312500000,41.6251983642578100,577.9163208007812000,3.9292891025543213,55.4596290588378900,55,99,102,78,84,15496,0,0,0,0,2147127899,2147773814,2147574116,2147574701,204,2,13,4936
1337909220,5808,1010.9299926757812000,40.9717597961425800,577.9421997070312000,3.9284839630126953,55.5552787780761700,55,101,100,78,83,15500,0,0,0,0,2147125732,2147774454,2147575780,2147574491,300,2,13,49129
1337912820,5809,1017.5200195312500000,41.8188591003418000,577.3010253906250000,3.9484519958496094,55.4276885986328100,55,99,101,78,84,15500,0,0,0,0,2147122761,2147773787,2147576886,2147573970,3346,2,13,63880
1337916420,5809,1014.9199829101562000,41.9177284240722660,577.4448242187500000,3.9439740180969240,55.4157905578613300,55,99,101,78,83,15498,0,0,0,0,2147129755,2147777389,2147574052,2147569371,13,2,13,44291
1337920020,5810,1009.3499755859375000,40.2349395751953100,576.5769042968750000,3.9709970951080322,55.6493186950683600,55,100,102,78,86,15500,0,0,0,0,2147126555,2147770825,2147572827,2147571245,432,2,13,62296
1337923620,5810,1009.8900146484375000,40.5677299499511700,577.3817138671875000,3.9459381103515625,55.6138916015625000,54,101,103,79,84,15499,0,0,0,0,2147127606,2147769362,2147573101,2147571794,180,2,13,42374
1337927220,5809,1007.2999877929688000,41.1459617614746100,577.9207763671875000,3.9291479587554930,55.5287704467773440,55,99,103,79,83,15497,0,0,0,0,2147124013,2147775488,2147577298,2147572196,591,2,13,3574
1337930820,5809,1006.0800170898438000,41.2838096618652340,577.9213256835938000,3.9291338920593260,55.5107002258300800,55,100,102,77,83,15499,0,0,0,0,2147126061,2147778688,2147577179,2147573842,461,2,13,40998
1337934420,5809,1007.6900024414062000,41.3441009521484400,578.1843261718750000,3.9209420680999756,55.5021095275878900,54,98,103,79,84,15496,0,0,0,0,2147123291,2147770285,2147572443,2147571904,1009,2,13,23841
1337938020,5811,1015.9699707031250000,42.1235694885253900,578.2825927734375000,3.9178829193115234,55.3950614929199200,55,98,101,78,85,15494,0,0,0,0,2147125403,2147772022,2147580745,2147572132,3363,2,13,62130
1337941620,5810,1011.5100097656250000,41.2336502075195300,578.7299194335938000,3.9039499759674072,55.5238189697265600,55,134,102,79,84,15493,0,0,0,0,2147120969,2147771163,2147574546,2147570505,361,2,13,34691
1337945220,5809,1008.7700195312500000,41.6019096374511700,578.7009887695312000,3.9048480987548830,55.4742088317871100,55,101,101,78,83,15497,0,0,0,0,2147125723,2147773586,2147578989,2147573604,143,2,13,24016
1337948820,5812,1016.7999877929688000,42.4165191650390600,578.2495117187500000,3.9189128875732420,55.3460388183593750,55,98,101,79,84,15496,0,0,0,0,2147123830,2147774262,2147573558,2147572288,3076,2,13,57034
1337952420,5808,1021.4600219726562000,41.3083381652832000,577.1032714843750000,3.9546089172363280,55.4985313415527340,54,102,102,78,84,15493,0,0,0,0,2147123465,2147772132,2147577545,2147573129,313,2,13,63306
1337956020,5810,1026.3000488281250000,41.0104598999023440,576.5791015625000000,3.9709260463714600,55.5395088195800800,54,100,102,79,84,15492,0,0,0,0,2147129243,2147777152,2147573888,2147574454,321,2,13,4131
1337959620,5808,1017.1300048828125000,40.6850814819335940,577.7742919921875000,3.9337120056152344,55.5952796936035160,56,99,101,78,84,15492,0,0,0,0,2147126409,2147771145,2147576320,2147567497,330,2,13,56759
1337963220,5807,1014.9099731445312000,41.8111305236816400,578.3062744140625000,3.9171450138092040,55.4402084350585940,54,98,101,80,84,15495,0,0,0,0,2147126893,2147775698,2147574912,2147575286,3597,2,13,14281
1337966820,5808,1010.8200073242188000,41.0782890319824200,577.6998291015625000,3.9360330104827880,55.5405006408691400,55,98,101,78,83,15493,0,0,0,0,2147126098,2147777005,2147573458,2147575241,3027,2,13,20300
1337970420,5809,1012.9000244140625000,41.2312583923339840,578.4725952148438000,3.9119629859924316,55.5224304199218750,56,97,100,78,83,15494,0,0,0,0,2147126025,2147776246,2147582784,2147571565,53,2,13,31685
1337973357,5811,1015.8099975585938000,41.9860305786132800,577.8961181640625000,3.9299199581146240,55.4102401733398440,54,100,101,79,84,15493,0,0,0,0,2147123492,2147781440,2147572809,2147572964,3532,2,13,20690
